Погода в Элке

Польша     53°49′20″N   22°21′24″E
темп.,
°C
ветер,
м/с
пор.,
м/с
влажн.,
%
обл.,
%
осадки,
мм/ч
давл.,
гПа
погр.,
м
15 мая, сб
сб1523:00+10ссз228583 0.0 100420
02:00+8ссз229087 0.0 100516
05:00+8з229352 0.0 100623
08:00+13зюз348380 0.0 1006513
11:00+13юз3478100 0.0 1007765
14:00+13зюз4577100 0.1 1008775
17:00+13з347898 0.1 1008733
20:00+10ссз2291100 0.1 100918
16 мая, вс
вс1623:00+8ююв1194100 0.0 100910
02:00+8юв229467 0.0 100930
05:00+8ююв3595100 0.0 100996
08:00+13юв4778100 0.0 1008343
11:00+17ююв576869 0.3 10081187
14:00+16ююв5881100 2.6 1007945
17:00+15юв478870 2.8 1005493
20:00+13ююв3692100 5.1 1004132
17 мая, пн
пн1723:00+12ююв3897100 1.3 1003201
02:00+11зсз4796100 1.6 1004374
05:00+10зюз259785 0.0 1005230
08:00+12зюз348626 0.0 1006511
11:00+16ююз346038 0.1 10061445
14:00+18ю3355100 0.1 10051715
17:00+16ю346982 0.3 1005546
20:00+12юз348899 1.4 100566
18 мая, вт
вт1823:00+11зюз3894100 0.1 1005262
02:00+10ююз2497100 0.9 1004161
05:00+10ююз2697100 0.7 1003213
08:00+10зюз3794100 0.8 1004369
11:00+13з578387 1.0 10041066
14:00+12з698364 3.3 1005925
17:00+12з4785100 0.6 1006605
20:00+10зюз2594100 1.6 1007152
19 мая, ср
ср1923:00+9зюз249659 0.1 100882
02:00+7зюз379712 0.1 1009147
05:00+6з249930 0.0 100997
08:00+11зсз248844 0.0 1010442
11:00+14з337084 0.9 10101239
14:00+14з337237 2.3 1010974
17:00+14з457929 2.5 1010752
20:00+10зсз4994100 3.9 1011413